Date String (YYYY-MM-DD hh:mm:ss) UTC,Instrument flags,Ambient pressure (hPa),Sample flow (lpm),Bypass flow (lpm),Sample temperature (°C),Ambient temperature (°C),ASC tube jacket temperature (°C),LED temperature (°C),Box temperature (°C),Sample RH (%),Span deviation,Mass concentration (μg/m³),Mass concentration (μg/m³),Mass concentration (μg/m³)
DateTimeUTC,F1_M11,P_M11,Q1_M11,Q2_M11,T1_M11,T2_M11,T3_M11,T4_M11,T5_M11,U1_M11,ZSPAN_M11,X0_M11,X2_M11,X1_M11
2022-05-11 13:00:00,,0823.3,4.99,0.00,26.7,25.9,00.0,35.5,28.6,17.3,0000.0,0024.15,0005.98,0002.69
2022-05-11 13:01:00,,0823.3,5.00,0.00,26.7,25.9,00.0,35.5,28.6,16.4,0000.0,0024.93,0006.03,0002.70
2022-05-11 13:02:00,,0823.3,5.01,0.00,26.7,26.0,00.0,35.5,28.6,15.9,0000.0,0025.39,0006.07,0002.72
2022-05-11 13:03:00,,0823.3,5.00,0.00,26.7,26.0,00.0,35.5,28.6,16.3,0000.0,0025.23,0006.06,0002.70
2022-05-11 13:04:00,,0823.2,4.99,0.00,26.7,26.0,00.0,35.5,28.6,15.8,0000.0,0024.89,0006.05,0002.70
2022-05-11 13:05:00,,0823.2,5.00,0.00,26.7,26.0,00.0,35.5,28.6,15.1,0000.0,0024.48,0006.07,0002.70
2022-05-11 13:06:00,,0823.2,5.01,0.00,26.7,26.0,00.0,35.6,28.7,15.7,0000.0,0024.30,0006.04,0002.68
2022-05-11 13:07:00,,0823.3,4.98,0.00,26.7,26.0,00.0,35.6,28.7,15.6,0000.0,0025.34,0006.05,0002.67
2022-05-11 13:08:00,,0823.2,5.00,0.00,26.7,26.0,00.0,35.6,28.7,15.1,0000.0,0025.62,0006.08,0002.66
2022-05-11 13:09:00,,0823.2,5.00,0.00,26.7,26.0,00.0,35.6,28.6,15.7,0000.0,0025.00,0006.17,0002.66
2022-05-11 13:10:00,,0823.3,5.00,0.00,26.7,26.0,00.0,35.6,28.6,15.6,0000.0,0024.09,0006.20,0002.68
2022-05-11 13:11:00,,0823.3,5.01,0.00,26.7,26.0,00.0,35.6,28.6,15.6,0000.0,0022.84,0006.26,0002.68
2022-05-11 13:12:00,,0823.3,5.02,0.00,26.7,26.0,00.0,35.6,28.7,15.2,0000.0,0022.75,0006.26,0002.68
2022-05-11 13:13:00,,0823.3,4.99,0.00,26.8,26.0,00.0,35.6,28.7,15.3,0000.0,0023.14,0006.22,0002.67
2022-05-11 13:14:00,,0823.3,5.01,0.00,26.8,26.0,00.0,35.6,28.7,15.3,0000.0,0024.18,0006.21,0002.69
2022-05-11 13:15:00,,0823.4,4.99,0.00,26.8,26.0,00.0,35.6,28.7,15.7,0000.0,0025.19,0006.26,0002.70
2022-05-11 13:16:00,,0823.4,5.01,0.00,26.8,26.1,00.0,35.6,28.6,15.9,0000.0,0025.29,0006.24,0002.70
2022-05-11 13:17:00,,0823.4,4.98,0.00,26.8,26.1,00.0,35.6,28.6,15.9,0000.0,0025.29,0006.33,0002.72
2022-05-11 13:18:00,,0823.4,5.02,0.00,26.8,26.1,00.0,35.7,28.7,16.4,0000.0,0024.77,0006.28,0002.71
2022-05-11 13:19:00,,0823.3,4.99,0.00,26.8,26.1,00.0,35.7,28.7,16.0,0000.0,0024.30,0006.17,0002.70
2022-05-11 13:20:00,,0823.3,5.01,0.00,26.8,26.1,00.0,35.7,28.7,15.4,0000.0,0024.80,0006.05,0002.70
2022-05-11 13:21:00,,0823.3,4.99,0.00,26.9,26.1,00.0,35.7,28.7,15.3,0000.0,0024.98,0005.97,0002.69
2022-05-11 13:22:00,,0823.3,5.00,0.00,26.9,26.1,00.0,35.7,28.7,15.4,0000.0,0025.31,0005.89,0002.70
2022-05-11 13:23:00,,0823.3,5.00,0.00,26.9,26.1,00.0,35.7,28.7,15.2,0000.0,0025.25,0005.88,0002.69
2022-05-11 13:24:00,,0823.3,4.99,0.00,26.9,26.1,00.0,35.7,28.8,15.0,0000.0,0026.61,0005.89,0002.69
2022-05-11 13:25:00,,0823.3,5.00,0.00,26.9,26.1,00.0,35.7,28.8,15.1,0000.0,0025.90,0005.86,0002.68
2022-05-11 13:26:00,,0823.4,5.01,0.00,26.9,26.1,00.0,35.8,28.8,15.0,0000.0,0024.96,0005.79,0002.67
2022-05-11 13:27:00,,0823.4,5.01,0.00,26.9,26.1,00.0,35.8,28.8,15.2,0000.0,0025.17,0005.78,0002.67
2022-05-11 13:28:00,,0823.4,4.99,0.00,26.9,26.1,00.0,35.8,28.8,16.4,0000.0,0024.23,0005.67,0002.65
2022-05-11 13:29:00,,0823.4,5.00,0.00,26.9,26.1,00.0,35.8,28.8,17.2,0000.0,0023.95,0005.64,0002.66
2022-05-11 13:30:00,,0823.4,5.00,0.00,26.9,26.1,00.0,35.8,28.7,18.3,0000.0,0024.47,0005.67,0002.67
2022-05-11 13:31:00,,0823.3,5.00,0.00,26.9,26.1,00.0,35.8,28.7,18.3,0000.0,0024.03,0005.71,0002.68
2022-05-11 13:32:00,,0823.4,4.99,0.00,26.9,26.1,00.0,35.8,28.8,18.0,0000.0,0024.69,0005.77,0002.68
2022-05-11 13:33:00,,0823.3,5.01,0.00,26.9,26.2,00.0,35.8,28.8,18.2,0000.0,0024.47,0005.76,0002.69
2022-05-11 13:34:00,,0823.2,5.00,0.00,27.0,26.2,00.0,35.8,28.8,18.2,0000.0,0024.86,0005.70,0002.67
2022-05-11 13:35:00,,0823.3,5.00,0.00,27.0,26.2,00.0,35.8,28.8,18.3,0000.0,0023.11,0005.60,0002.65
2022-05-11 13:36:00,,0823.3,5.01,0.00,27.0,26.2,00.0,35.8,28.8,18.1,0000.0,0022.88,0005.60,0002.67
2022-05-11 13:37:00,,0823.2,5.00,0.00,27.0,26.2,00.0,35.9,28.9,18.4,0000.0,0023.51,0005.66,0002.71
2022-05-11 13:38:00,,0823.2,4.99,0.00,27.0,26.2,00.0,35.9,28.9,18.3,0000.0,0023.58,0005.71,0002.71
2022-05-11 13:39:00,,0823.2,5.01,0.00,27.0,26.2,00.0,35.9,28.9,17.9,0000.0,0023.87,0005.72,0002.71
2022-05-11 13:40:00,,0823.2,5.01,0.00,27.0,26.2,00.0,35.9,28.9,18.1,0000.0,0024.40,0005.79,0002.72
2022-05-11 13:41:00,,0823.2,4.99,0.00,27.0,26.3,00.0,35.9,28.9,18.1,0000.0,0023.86,0005.81,0002.73
2022-05-11 13:42:00,,0823.2,5.00,0.00,27.0,26.2,00.0,35.9,28.9,17.8,0000.0,0024.19,0005.88,0002.75
2022-05-11 13:43:00,,0823.2,5.01,0.00,27.0,26.2,00.0,35.9,28.9,17.4,0000.0,0022.97,0005.83,0002.78
2022-05-11 13:44:00,,0823.1,5.00,0.00,27.0,26.2,00.0,35.9,28.9,17.6,0000.0,0023.47,0005.81,0002.78
2022-05-11 13:45:00,,0823.2,4.99,0.00,27.0,26.2,00.0,35.9,28.9,17.7,0000.0,0024.52,0005.91,0002.78
2022-05-11 13:46:00,,0823.2,5.00,0.00,27.0,26.2,00.0,35.9,28.9,16.9,0000.0,0024.99,0006.02,0002.81
2022-05-11 13:47:00,,0823.3,5.01,0.00,27.0,26.2,00.0,35.9,28.9,16.8,0000.0,0024.80,0006.01,0002.81
2022-05-11 13:48:00,,0823.2,5.00,0.00,27.0,26.2,00.0,35.9,28.9,16.3,0000.0,0024.43,0005.93,0002.82
2022-05-11 13:49:00,,0823.1,5.00,0.00,27.0,26.2,00.0,35.9,28.9,16.4,0000.0,0025.07,0005.88,0002.86
2022-05-11 13:50:00,,0823.1,5.00,0.00,27.0,26.3,00.0,35.9,28.9,16.6,0000.0,0024.77,0005.81,0002.90
2022-05-11 13:51:00,,0823.1,5.00,0.00,27.0,26.3,00.0,35.9,28.9,16.6,0000.0,0024.87,0005.76,0002.93
2022-05-11 13:52:00,,0823.1,5.00,0.00,27.0,26.3,00.0,35.9,28.8,17.3,0000.0,0025.55,0005.76,0002.93
2022-05-11 13:53:00,,0823.1,5.00,0.00,27.0,26.2,00.0,35.9,28.8,17.3,0000.0,0025.83,0005.65,0002.92
2022-05-11 13:54:00,,0823.1,4.99,0.00,27.0,26.2,00.0,35.9,28.8,17.5,0000.0,0026.35,0005.64,0002.90
2022-05-11 13:55:00,,0823.1,5.01,0.00,27.0,26.2,00.0,35.9,28.8,17.5,0000.0,0025.58,0005.67,0002.90
2022-05-11 13:56:00,,0823.1,5.00,0.00,27.0,26.2,00.0,35.9,28.8,18.0,0000.0,0024.65,0005.63,0002.94
2022-05-11 13:57:00,,0823.1,4.99,0.00,27.0,26.2,00.0,35.9,28.8,18.6,0000.0,0024.45,0005.65,0002.92
2022-05-11 13:58:00,,0823.1,5.00,0.00,27.0,26.2,00.0,35.9,28.8,18.7,0000.0,0023.82,0005.68,0002.90
2022-05-11 13:59:00,,0823.1,4.99,0.00,27.0,26.2,00.0,35.9,28.8,18.5,0000.0,0024.16,0005.71,0002.88
